User: anonymous   Login
Location: Felsheim
(48.7267°N, 10.7386°E)
Time: 02:19:09
(UTC+00:00)
Language:

BREEZE-M DEB (TANK) - Orbit

View from above orbital plane
View from above orbital plane
View from above satellite
View from above satellite

Ground track
Ground track

The orbit data is extracted from the following two-line orbital elements,

1 42751U 17032C   20192.49138543 +.00000931 +00000-0 +16429-3 0  9991
2 42751 049.6994 284.8658 4646784 213.5753 105.8170 06.20914404069948
Epoch (UTC): 10 July 2020 11:47:35
Eccentricity: 0.4646784
inclination: 49.6994°
perigee height: 315 km
apogee height: 11936 km
right ascension of ascending node: 284.8658°
argument of perigee: 213.5753°
revolutions per day: 6.20914404
mean anomaly at epoch: 105.8170°
orbit number at epoch: 6994

The dashed part of the orbit path shows where the satellite is in the earth's shadow,  

DLR